When you browse on this site, cookies collect data to enhance your experience and personalize the content and advertising you see.
Visit our Privacy Policy to learn more. By continuing to use the site, you agree to this use of cookies and data.
  • en France
  • Liste des pays
  • À 7 jours
  • Température de l'eau
  • Carte météo
  • Widgets météo
  • user-avatar
    Se connecter

    Météo par heure à White Plains

    Ce jour, 26 Mai, Mardi

    Heure Température Précipitation Vent Pression Humidité
    00:00 +16°C° 0 mm 1 m/s 758 mmHg 88%
    01:00 +15°C° 0 mm 0 m/s 758 mmHg 89%
    02:00 +14°C° 0 mm 0 m/s 758 mmHg 90%
    03:00 +14°C° 0 mm 0 m/s 758 mmHg 91%
    04:00 +14°C° 0 mm 0 m/s 757 mmHg 92%
    05:00 +15°C° 0 mm 0 m/s 758 mmHg 89%
    06:00 +16°C° 0 mm 0 m/s 758 mmHg 85%
    07:00 +19°C° 0 mm 1 m/s 758 mmHg 82%
    08:00 +21°C° 0 mm 1 m/s 758 mmHg 74%
    09:00 +24°C° 0 mm 1 m/s 758 mmHg 66%
    10:00 +26°C° 0 mm 1 m/s 758 mmHg 58%
    11:00 +27°C° 0 mm 2 m/s 758 mmHg 55%
    12:00 +27°C° 0 mm 2 m/s 758 mmHg 52%
    13:00 +28°C° 0 mm 3 m/s 758 mmHg 50%
    14:00 +28°C° 0 mm 3 m/s 758 mmHg 51%
    15:00 +27°C° 0 mm 3 m/s 757 mmHg 52%
    16:00 +27°C° 0 mm 3 m/s 757 mmHg 54%
    17:00 +25°C° 0 mm 3 m/s 757 mmHg 59%
    18:00 +22°C° 0 mm 3 m/s 757 mmHg 65%
    19:00 +21°C° 0 mm 3 m/s 757 mmHg 71%
    20:00 +20°C° 0 mm 2 m/s 758 mmHg 75%
    21:00 +19°C° 0 mm 2 m/s 758 mmHg 78%
    22:00 +18°C° 0 mm 2 m/s 758 mmHg 82%
    23:00 +18°C° 0 mm 2 m/s 758 mmHg 84%

    Demain, 27 Mai, Mercredi

    Heure Température Précipitation Vent Pression Humidité
    00:00 +17°C° 0 mm 2 m/s 758 mmHg 86%
    01:00 +18°C° 0 mm 1 m/s 758 mmHg 88%
    02:00 +18°C° 0 mm 1 m/s 758 mmHg 89%
    03:00 +18°C° 0 mm 1 m/s 758 mmHg 90%
    04:00 +18°C° 0 mm 1 m/s 758 mmHg 91%
    05:00 +19°C° 0 mm 1 m/s 759 mmHg 87%
    06:00 +20°C° 0 mm 1 m/s 759 mmHg 83%
    07:00 +21°C° 0 mm 1 m/s 759 mmHg 79%
    08:00 +21°C° 0 mm 2 m/s 759 mmHg 72%
    09:00 +24°C° 0 mm 2 m/s 759 mmHg 65%
    10:00 +25°C° 0 mm 3 m/s 759 mmHg 58%
    11:00 +26°C° 0 mm 3 m/s 759 mmHg 57%
    12:00 +26°C° 0 mm 4 m/s 759 mmHg 56%
    13:00 +27°C° 0 mm 4 m/s 759 mmHg 54%
    14:00 +27°C° 0 mm 4 m/s 758 mmHg 56%
    15:00 +26°C° 0 mm 4 m/s 758 mmHg 57%
    16:00 +26°C° 0 mm 4 m/s 758 mmHg 58%
    17:00 +25°C° 0 mm 4 m/s 758 mmHg 66%
    18:00 +22°C° 0 mm 4 m/s 758 mmHg 74%
    19:00 +21°C° 0 mm 3 m/s 759 mmHg 81%
    20:00 +21°C° 0 mm 3 m/s 759 mmHg 85%
    21:00 +20°C° 0 mm 3 m/s 759 mmHg 88%
    22:00 +19°C° 0 mm 3 m/s 759 mmHg 91%
    23:00 +19°C° 0 mm 3 m/s 759 mmHg 90%

    Après-demain, 28 Mai, Jeudi

    Heure Température Précipitation Vent Pression Humidité
    00:00 +19°C° 0 mm 3 m/s 759 mmHg 90%
    01:00 +19°C° 0 mm 2 m/s 759 mmHg 89%
    02:00 +19°C° 0 mm 2 m/s 759 mmHg 90%
    03:00 +19°C° 0 mm 2 m/s 759 mmHg 90%
    04:00 +19°C° 0 mm 2 m/s 759 mmHg 90%
    05:00 +19°C° 0 mm 2 m/s 759 mmHg 89%
    06:00 +19°C° 0 mm 2 m/s 759 mmHg 88%
    07:00 +19°C° 0 mm 2 m/s 759 mmHg 87%
    08:00 +20°C° 0 mm 2 m/s 759 mmHg 86%
    09:00 +20°C° 0 mm 2 m/s 759 mmHg 86%
    10:00 +20°C° 0 mm 2 m/s 759 mmHg 86%
    11:00 +20°C° 0 mm 3 m/s 759 mmHg 86%
    12:00 +20°C° 0 mm 3 m/s 758 mmHg 85%
    13:00 +20°C° 0 mm 3 m/s 758 mmHg 85%
    14:00 +21°C° 0.1 mm 3 m/s 758 mmHg 84%
    15:00 +21°C° 0.1 mm 4 m/s 757 mmHg 84%
    16:00 +21°C° 0.1 mm 4 m/s 757 mmHg 83%
    17:00 +21°C° 0 mm 4 m/s 757 mmHg 84%
    18:00 +20°C° 0 mm 4 m/s 757 mmHg 84%
    19:00 +20°C° 0 mm 4 m/s 757 mmHg 85%
    20:00 +20°C° 0 mm 4 m/s 756 mmHg 87%
    21:00 +20°C° 0 mm 4 m/s 756 mmHg 89%
    22:00 +19°C° 0 mm 4 m/s 756 mmHg 91%
    23:00 +19°C° 0 mm 4 m/s 756 mmHg 92%

    29 Mai, Vendredi

    Heure Température Précipitation Vent Pression Humidité
    00:00 +20°C° 0 mm 4 m/s 756 mmHg 93%
    01:00 +20°C° 0 mm 4 m/s 755 mmHg 93%
    02:00 +20°C° 0 mm 4 m/s 755 mmHg 93%
    03:00 +20°C° 0 mm 4 m/s 755 mmHg 94%
    04:00 +20°C° 0 mm 4 m/s 754 mmHg 94%
    05:00 +20°C° 0 mm 4 m/s 754 mmHg 93%
    06:00 +20°C° 0 mm 4 m/s 754 mmHg 93%
    07:00 +21°C° 0 mm 4 m/s 754 mmHg 92%
    08:00 +22°C° 0 mm 4 m/s 754 mmHg 88%
    09:00 +22°C° 0 mm 4 m/s 754 mmHg 85%
    10:00 +23°C° 0 mm 4 m/s 754 mmHg 81%
    11:00 +25°C° 0 mm 5 m/s 753 mmHg 79%
    12:00 +25°C° 0 mm 5 m/s 753 mmHg 77%
    13:00 +25°C° 0 mm 5 m/s 752 mmHg 76%
    14:00 +26°C° 0 mm 5 m/s 752 mmHg 74%
    15:00 +26°C° 0 mm 4 m/s 752 mmHg 73%
    16:00 +26°C° 0 mm 4 m/s 751 mmHg 72%
    17:00 +25°C° 0.4 mm 4 m/s 751 mmHg 76%
    18:00 +23°C° 0.4 mm 4 m/s 751 mmHg 79%
    19:00 +22°C° 0.4 mm 4 m/s 751 mmHg 83%
    20:00 +22°C° 0.3 mm 4 m/s 751 mmHg 85%
    21:00 +22°C° 0.3 mm 4 m/s 751 mmHg 86%
    22:00 +22°C° 0.3 mm 4 m/s 751 mmHg 88%
    23:00 +22°C° 0.4 mm 4 m/s 751 mmHg 90%

    30 Mai, Samedi

    Heure Température Précipitation Vent Pression Humidité
    00:00 +22°C° 0.4 mm 4 m/s 751 mmHg 91%
    01:00 +21°C° 0.4 mm 3 m/s 750 mmHg 93%
    02:00 +21°C° 0.5 mm 3 m/s 750 mmHg 93%
    03:00 +21°C° 0.5 mm 3 m/s 750 mmHg 93%
    04:00 +21°C° 0.5 mm 3 m/s 750 mmHg 93%
    05:00 +21°C° 0.7 mm 3 m/s 750 mmHg 94%
    06:00 +21°C° 0.7 mm 3 m/s 750 mmHg 94%
    07:00 +21°C° 0.7 mm 2 m/s 750 mmHg 94%
    08:00 +21°C° 0.3 mm 2 m/s 750 mmHg 91%
    09:00 +23°C° 0.3 mm 2 m/s 750 mmHg 88%
    10:00 +22°C° 0.3 mm 3 m/s 750 mmHg 85%
    11:00 +24°C° 1.1 mm 2 m/s 750 mmHg 84%
    12:00 +24°C° 1.1 mm 2 m/s 749 mmHg 83%
    13:00 +24°C° 1.1 mm 2 m/s 749 mmHg 82%
    14:00 +23°C° 2.9 mm 2 m/s 749 mmHg 85%
    15:00 +23°C° 2.9 mm 2 m/s 748 mmHg 87%
    16:00 +21°C° 2.9 mm 2 m/s 748 mmHg 90%
    17:00 +20°C° 4.1 mm 2 m/s 748 mmHg 89%
    18:00 +19°C° 4.1 mm 3 m/s 748 mmHg 88%
    19:00 +18°C° 4.1 mm 3 m/s 749 mmHg 87%
    20:00 +17°C° 0.1 mm 3 m/s 749 mmHg 86%
    21:00 +17°C° 0.1 mm 2 m/s 749 mmHg 85%
    22:00 +17°C° 0.1 mm 2 m/s 750 mmHg 84%
    23:00 +16°C° 0 mm 3 m/s 749 mmHg 82%

    31 Mai, Dimanche

    Heure Température Précipitation Vent Pression Humidité
    00:00 +16°C° 0 mm 3 m/s 749 mmHg 80%
    01:00 +14°C° 0 mm 3 m/s 749 mmHg 79%
    02:00 +13°C° 0 mm 3 m/s 749 mmHg 79%
    03:00 +13°C° 0 mm 3 m/s 750 mmHg 80%
    04:00 +12°C° 0 mm 3 m/s 750 mmHg 80%
    05:00 +13°C° 0 mm 4 m/s 750 mmHg 76%
    06:00 +14°C° 0 mm 4 m/s 751 mmHg 72%
    07:00 +14°C° 0 mm 5 m/s 751 mmHg 68%
    08:00 +16°C° 0 mm 5 m/s 751 mmHg 59%
    09:00 +17°C° 0 mm 5 m/s 751 mmHg 50%
    10:00 +19°C° 0 mm 5 m/s 752 mmHg 41%
    11:00 +20°C° 0 mm 5 m/s 751 mmHg 36%
    12:00 +21°C° 0 mm 5 m/s 751 mmHg 31%
    13:00 +22°C° 0 mm 5 m/s 751 mmHg 27%
    14:00 +21°C° 0 mm 5 m/s 751 mmHg 26%
    15:00 +21°C° 0 mm 5 m/s 751 mmHg 26%
    16:00 +21°C° 0 mm 6 m/s 751 mmHg 25%
    17:00 +20°C° 0 mm 5 m/s 752 mmHg 30%
    18:00 +17°C° 0 mm 5 m/s 752 mmHg 35%
    19:00 +17°C° 0 mm 4 m/s 753 mmHg 40%
    20:00 +15°C° 0 mm 4 m/s 753 mmHg 42%
    21:00 +14°C° 0 mm 5 m/s 754 mmHg 45%
    22:00 +13°C° 0 mm 5 m/s 754 mmHg 47%
    23:00 +12°C° 0 mm 5 m/s 754 mmHg 49%
    Voir plus